TimeHST,TemperatureF,Dew PointF,Humidity,Sea Level PressureIn,VisibilityMPH,Wind Direction,Wind SpeedMPH,Gust SpeedMPH,PrecipitationIn,Events,Conditions,WindDirDegrees,DateUTC
12:53 AM,72.0,62.1,71,30.07,10.0,NE,4.6,20.7,N/A,,Partly Cloudy,50,2013-02-07 10:53:00
1:53 AM,72.0,63.0,73,30.06,10.0,NE,15.0,-,N/A,,Scattered Clouds,40,2013-02-07 11:53:00
2:53 AM,72.0,63.0,73,30.05,10.0,NE,11.5,-,N/A,,Partly Cloudy,50,2013-02-07 12:53:00
3:53 AM,70.0,64.0,81,30.05,10.0,NNE,5.8,-,0.00,Rain,Light Rain,30,2013-02-07 13:53:00
4:53 AM,70.0,64.0,81,30.06,10.0,NE,10.4,-,0.00,Rain,Light Rain,40,2013-02-07 14:53:00
5:53 AM,69.1,64.9,87,30.07,10.0,NNE,8.1,-,0.00,,Scattered Clouds,20,2013-02-07 15:53:00
6:53 AM,71.1,64.0,78,30.08,10.0,NE,11.5,-,0.00,Rain,Light Rain,40,2013-02-07 16:53:00
7:53 AM,73.0,64.0,73,30.09,10.0,NNE,8.1,-,0.00,,Scattered Clouds,30,2013-02-07 17:53:00
8:53 AM,75.9,64.9,69,30.10,10.0,NE,11.5,16.1,N/A,,Scattered Clouds,40,2013-02-07 18:53:00
9:53 AM,78.1,64.9,64,30.11,10.0,NE,15.0,19.6,N/A,,Scattered Clouds,50,2013-02-07 19:53:00
10:53 AM,79.0,64.9,62,30.11,10.0,ENE,16.1,-,N/A,,Scattered Clouds,60,2013-02-07 20:53:00
11:53 AM,79.0,64.9,62,30.09,10.0,East,11.5,-,N/A,,Scattered Clouds,80,2013-02-07 21:53:00
12:53 PM,82.0,63.0,52,30.07,10.0,East,15.0,21.9,N/A,,Scattered Clouds,90,2013-02-07 22:53:00
1:53 PM,81.0,64.9,58,30.05,10.0,NE,17.3,-,N/A,,Scattered Clouds,40,2013-02-07 23:53:00
2:53 PM,80.1,66.0,62,30.04,10.0,ENE,16.1,23.0,N/A,,Scattered Clouds,60,2013-02-08 00:53:00
3:53 PM,78.1,66.0,66,30.04,10.0,NE,11.5,-,0.00,,Scattered Clouds,40,2013-02-08 01:53:00
4:53 PM,78.1,66.0,66,30.04,10.0,ENE,11.5,24.2,N/A,,Scattered Clouds,60,2013-02-08 02:53:00
5:53 PM,75.9,66.0,71,30.06,10.0,East,12.7,-,N/A,,Scattered Clouds,80,2013-02-08 03:53:00
6:53 PM,75.0,64.9,71,30.08,10.0,ENE,12.7,-,N/A,,Partly Cloudy,70,2013-02-08 04:53:00
7:53 PM,73.9,66.0,76,30.10,10.0,ENE,13.8,-,N/A,,Partly Cloudy,60,2013-02-08 05:53:00
8:53 PM,73.9,64.9,73,30.12,10.0,ENE,15.0,-,N/A,,Partly Cloudy,60,2013-02-08 06:53:00
9:53 PM,73.0,64.9,76,30.12,10.0,NE,11.5,-,N/A,,Partly Cloudy,40,2013-02-08 07:53:00
10:53 PM,73.9,64.0,71,30.12,10.0,NE,11.5,18.4,N/A,,Partly Cloudy,40,2013-02-08 08:53:00
11:53 PM,73.9,64.0,71,30.12,10.0,NE,4.6,-,N/A,,Partly Cloudy,40,2013-02-08 09:53:00